Year,Month,Day,Hour,Minute,Value (Times are PST for windgust in km/hr)
2016,03,09,00,00,11.30
2016,03,09,00,01,11.30
2016,03,09,00,02,11.30
2016,03,09,00,03,16.10
2016,03,09,00,04,17.70
2016,03,09,00,05,16.10
2016,03,09,00,06,16.10
2016,03,09,00,07,14.50
2016,03,09,00,08,12.90
2016,03,09,00,09,12.90
2016,03,09,00,10,20.90
2016,03,09,00,11,20.90
2016,03,09,00,12,22.50
2016,03,09,00,13,19.30
2016,03,09,00,14,19.30
2016,03,09,00,15,19.30
2016,03,09,00,16,19.30
2016,03,09,00,17,14.50
2016,03,09,00,18,14.50
2016,03,09,00,19,17.70
2016,03,09,00,20,20.90
2016,03,09,00,21,12.90
2016,03,09,00,22,12.90
2016,03,09,00,23,16.10
2016,03,09,00,24,14.50
2016,03,09,00,25,17.70
2016,03,09,00,26,14.50
2016,03,09,00,27,14.50
2016,03,09,00,28,17.70
2016,03,09,00,29,19.30
2016,03,09,00,30,14.50
2016,03,09,00,31,16.10
2016,03,09,00,32,19.30
2016,03,09,00,33,11.30
2016,03,09,00,34,12.90
2016,03,09,00,35,12.90
2016,03,09,00,36,17.70
2016,03,09,00,37,17.70
2016,03,09,00,38,17.70
2016,03,09,00,39,20.90
2016,03,09,00,40,24.20
2016,03,09,00,41,19.30
2016,03,09,00,42,19.30
2016,03,09,00,43,17.70
2016,03,09,00,44,17.70
2016,03,09,00,45,19.30
2016,03,09,00,46,17.70
2016,03,09,00,47,12.90
2016,03,09,00,48,19.30
2016,03,09,00,49,20.90
2016,03,09,00,50,16.10
2016,03,09,00,51,20.90
2016,03,09,00,52,19.30
2016,03,09,00,53,20.90
2016,03,09,00,54,17.70
2016,03,09,00,55,17.70
2016,03,09,00,56,17.70
2016,03,09,00,57,19.30
2016,03,09,00,58,14.50
2016,03,09,00,59,17.70
2016,03,09,01,00,22.50
2016,03,09,01,01,20.90
2016,03,09,01,02,19.30
2016,03,09,01,03,14.50
2016,03,09,01,04,16.10
2016,03,09,01,05,14.50
2016,03,09,01,06,16.10
2016,03,09,01,07,14.50
2016,03,09,01,08,16.10
2016,03,09,01,09,16.10
2016,03,09,01,10,17.70
2016,03,09,01,11,17.70
2016,03,09,01,12,16.10
2016,03,09,01,13,12.90
2016,03,09,01,14,11.30
2016,03,09,01,15,20.90
2016,03,09,01,16,16.10
2016,03,09,01,17,14.50
2016,03,09,01,18,19.30
2016,03,09,01,19,19.30
2016,03,09,01,20,14.50
2016,03,09,01,21,17.70
2016,03,09,01,22,12.90
2016,03,09,01,23,11.30
2016,03,09,01,24,14.50
2016,03,09,01,25,19.30
2016,03,09,01,26,14.50
2016,03,09,01,27,14.50
2016,03,09,01,28,17.70
2016,03,09,01,29,16.10
2016,03,09,01,30,20.90
2016,03,09,01,31,12.90
2016,03,09,01,32,12.90
2016,03,09,01,33,16.10
2016,03,09,01,34,17.70
2016,03,09,01,35,17.70
2016,03,09,01,36,12.90
2016,03,09,01,37,16.10
2016,03,09,01,38,16.10
2016,03,09,01,39,17.70
2016,03,09,01,40,12.90
2016,03,09,01,41,19.30
2016,03,09,01,42,20.90
2016,03,09,01,43,12.90
2016,03,09,01,44,17.70
2016,03,09,01,45,17.70
2016,03,09,01,46,25.70
2016,03,09,01,47,17.70
2016,03,09,01,48,22.50
2016,03,09,01,49,22.50
2016,03,09,01,50,17.70
2016,03,09,01,51,17.70
2016,03,09,01,52,20.90
2016,03,09,01,53,16.10
2016,03,09,01,54,16.10
2016,03,09,01,55,12.90
2016,03,09,01,56,17.70
2016,03,09,01,57,22.50
2016,03,09,01,58,22.50
2016,03,09,01,59,24.20
2016,03,09,02,00,16.10
2016,03,09,02,01,11.30
2016,03,09,02,02,16.10
2016,03,09,02,03,16.10
2016,03,09,02,04,16.10
2016,03,09,02,05,12.90
2016,03,09,02,06,14.50
2016,03,09,02,07,16.10
2016,03,09,02,08,14.50
2016,03,09,02,09,11.30
2016,03,09,02,10,16.10
2016,03,09,02,11,12.90
2016,03,09,02,12,17.70
2016,03,09,02,13,16.10
2016,03,09,02,14,12.90
2016,03,09,02,15,12.90
2016,03,09,02,16,14.50
2016,03,09,02,17,19.30
2016,03,09,02,18,17.70
2016,03,09,02,19,14.50
2016,03,09,02,20,11.30
2016,03,09,02,21,11.30
2016,03,09,02,22,9.60
2016,03,09,02,23,11.30
2016,03,09,02,24,11.30
2016,03,09,02,25,14.50
2016,03,09,02,26,16.10
2016,03,09,02,27,12.90
2016,03,09,02,28,14.50
2016,03,09,02,29,14.50
2016,03,09,02,30,11.30
2016,03,09,02,31,16.10
2016,03,09,02,32,16.10
2016,03,09,02,33,17.70
2016,03,09,02,34,11.30
2016,03,09,02,35,4.80
2016,03,09,02,36,8.10
2016,03,09,02,37,9.60
2016,03,09,02,38,12.90
2016,03,09,02,39,9.60
2016,03,09,02,40,12.90
2016,03,09,02,41,12.90
2016,03,09,02,42,12.90
2016,03,09,02,43,12.90
2016,03,09,02,44,11.30
2016,03,09,02,45,11.30
2016,03,09,02,46,11.30
2016,03,09,02,47,16.10
2016,03,09,02,48,17.70
2016,03,09,02,49,12.90
2016,03,09,02,50,14.50
2016,03,09,02,51,14.50
2016,03,09,02,52,17.70
2016,03,09,02,53,14.50
2016,03,09,02,54,14.50
2016,03,09,02,55,16.10
2016,03,09,02,56,11.30
2016,03,09,02,57,9.60
2016,03,09,02,58,9.60
2016,03,09,02,59,14.50
2016,03,09,03,00,11.30
2016,03,09,03,01,9.60
2016,03,09,03,02,9.60
2016,03,09,03,03,8.10
2016,03,09,03,04,16.10
2016,03,09,03,05,16.10
2016,03,09,03,06,11.30
2016,03,09,03,07,16.10
2016,03,09,03,08,17.70
2016,03,09,03,09,17.70
2016,03,09,03,10,19.30
2016,03,09,03,11,14.50
2016,03,09,03,12,19.30
2016,03,09,03,13,17.70
2016,03,09,03,14,14.50
2016,03,09,03,15,14.50
2016,03,09,03,16,14.50
2016,03,09,03,17,16.10
2016,03,09,03,18,17.70
2016,03,09,03,19,19.30
2016,03,09,03,20,19.30
2016,03,09,03,21,17.70
2016,03,09,03,22,12.90
2016,03,09,03,23,12.90
2016,03,09,03,24,16.10
2016,03,09,03,25,16.10
2016,03,09,03,26,9.60
2016,03,09,03,27,20.90
2016,03,09,03,28,24.20
2016,03,09,03,29,19.30
2016,03,09,03,30,12.90
2016,03,09,03,31,25.70
2016,03,09,03,32,20.90
2016,03,09,03,33,22.50
2016,03,09,03,34,17.70
2016,03,09,03,35,17.70
2016,03,09,03,36,16.10
2016,03,09,03,37,19.30
2016,03,09,03,38,22.50
2016,03,09,03,39,20.90
2016,03,09,03,40,16.10
2016,03,09,03,41,19.30
2016,03,09,03,42,16.10
2016,03,09,03,43,12.90
2016,03,09,03,44,14.50
2016,03,09,03,45,11.30
2016,03,09,03,46,17.70
2016,03,09,03,47,16.10
2016,03,09,03,48,17.70
2016,03,09,03,49,16.10
2016,03,09,03,50,12.90
2016,03,09,03,51,14.50
2016,03,09,03,52,16.10
2016,03,09,03,53,17.70
2016,03,09,03,54,16.10
2016,03,09,03,55,12.90
2016,03,09,03,56,12.90
2016,03,09,03,57,12.90
2016,03,09,03,58,19.30
2016,03,09,03,59,17.70
2016,03,09,04,00,19.30
2016,03,09,04,01,12.90
2016,03,09,04,02,14.50
2016,03,09,04,04,12.90
2016,03,09,04,05,16.10
2016,03,09,04,06,19.30
2016,03,09,04,07,16.10
2016,03,09,04,08,16.10
2016,03,09,04,09,16.10
2016,03,09,04,10,16.10
2016,03,09,04,11,16.10
2016,03,09,04,12,11.30
2016,03,09,04,13,11.30
2016,03,09,04,14,9.60
2016,03,09,04,15,12.90
2016,03,09,04,16,12.90
2016,03,09,04,17,17.70
2016,03,09,04,18,16.10
2016,03,09,04,19,17.70
2016,03,09,04,20,29.00
2016,03,09,04,21,24.20
2016,03,09,04,22,27.40
2016,03,09,04,23,17.70
2016,03,09,04,24,16.10
2016,03,09,04,25,17.70
2016,03,09,04,26,27.40
2016,03,09,04,27,20.90
2016,03,09,04,28,25.70
2016,03,09,04,29,27.40
2016,03,09,04,30,27.40
2016,03,09,04,31,40.20
2016,03,09,04,32,24.20
2016,03,09,04,33,37.00
2016,03,09,04,34,37.00
2016,03,09,04,35,27.40
2016,03,09,04,36,37.00
2016,03,09,04,37,33.80
2016,03,09,04,38,25.70
2016,03,09,04,39,43.50
2016,03,09,04,40,29.00
2016,03,09,04,41,29.00
2016,03,09,04,42,20.90
2016,03,09,04,43,24.20
2016,03,09,04,44,22.50
2016,03,09,04,45,22.50
2016,03,09,04,46,19.30
2016,03,09,04,47,24.20
2016,03,09,04,48,22.50
2016,03,09,04,49,20.90
2016,03,09,04,50,20.90
2016,03,09,04,51,29.00
2016,03,09,04,52,29.00
2016,03,09,04,53,24.20
2016,03,09,04,54,17.70
2016,03,09,04,55,25.70
2016,03,09,04,56,20.90
2016,03,09,04,57,17.70
2016,03,09,04,58,27.40
2016,03,09,04,59,20.90
2016,03,09,05,00,25.70
2016,03,09,05,01,29.00
2016,03,09,05,02,30.60
2016,03,09,05,03,24.20
2016,03,09,05,04,24.20
2016,03,09,05,05,24.20
2016,03,09,05,06,27.40
2016,03,09,05,07,25.70
2016,03,09,05,08,29.00
2016,03,09,05,09,25.70
2016,03,09,05,10,25.70
2016,03,09,05,11,29.00
2016,03,09,05,12,20.90
2016,03,09,05,13,17.70
2016,03,09,05,14,17.70
2016,03,09,05,15,29.00
2016,03,09,05,16,25.70
2016,03,09,05,17,33.80
2016,03,09,05,18,25.70
2016,03,09,05,19,14.50
2016,03,09,05,20,16.10
2016,03,09,05,21,17.70
2016,03,09,05,22,22.50
2016,03,09,05,23,24.20
2016,03,09,05,24,19.30
2016,03,09,05,25,22.50
2016,03,09,05,26,25.70
2016,03,09,05,27,24.20
2016,03,09,05,28,20.90
2016,03,09,05,29,27.40
2016,03,09,05,30,24.20
2016,03,09,05,31,25.70
2016,03,09,05,32,19.30
2016,03,09,05,33,16.10
2016,03,09,05,34,17.70
2016,03,09,05,35,17.70
2016,03,09,05,36,17.70
2016,03,09,05,37,19.30
2016,03,09,05,38,30.60
2016,03,09,05,39,29.00
2016,03,09,05,40,20.90
2016,03,09,05,41,22.50
2016,03,09,05,42,24.20
2016,03,09,05,43,17.70
2016,03,09,05,44,19.30
2016,03,09,05,45,19.30
2016,03,09,05,46,19.30
2016,03,09,05,47,20.90
2016,03,09,05,48,20.90
2016,03,09,05,49,25.70
2016,03,09,05,50,20.90
2016,03,09,05,51,27.40
2016,03,09,05,52,20.90
2016,03,09,05,53,27.40
2016,03,09,05,54,20.90
2016,03,09,05,55,19.30
2016,03,09,05,56,24.20
2016,03,09,05,57,27.40
2016,03,09,05,58,22.50
2016,03,09,05,59,27.40
2016,03,09,06,00,20.90
2016,03,09,06,01,32.20
2016,03,09,06,02,32.20
2016,03,09,06,03,19.30
2016,03,09,06,04,17.70
2016,03,09,06,05,24.20
2016,03,09,06,06,22.50
2016,03,09,06,07,20.90
2016,03,09,06,08,20.90
2016,03,09,06,09,22.50
2016,03,09,06,10,19.30
2016,03,09,06,11,37.00
2016,03,09,06,12,25.70
2016,03,09,06,13,30.60
2016,03,09,06,14,29.00
2016,03,09,06,15,20.90
2016,03,09,06,16,24.20
2016,03,09,06,17,32.20
2016,03,09,06,18,22.50
2016,03,09,06,19,24.20
2016,03,09,06,20,20.90
2016,03,09,06,21,22.50
2016,03,09,06,22,19.30
2016,03,09,06,23,20.90
2016,03,09,06,24,25.70
2016,03,09,06,25,25.70
2016,03,09,06,26,32.20
2016,03,09,06,27,35.40
2016,03,09,06,28,38.60
2016,03,09,06,29,35.40
2016,03,09,06,30,29.00
2016,03,09,06,31,32.20
2016,03,09,06,32,29.00
2016,03,09,06,33,29.00
2016,03,09,06,34,35.40
2016,03,09,06,35,33.80
2016,03,09,06,36,35.40
2016,03,09,06,37,29.00
2016,03,09,06,38,40.20
2016,03,09,06,39,32.20
2016,03,09,06,40,35.40
2016,03,09,06,41,33.80
2016,03,09,06,42,32.20
2016,03,09,06,43,33.80
2016,03,09,06,44,24.20
2016,03,09,06,45,24.20
2016,03,09,06,46,29.00
2016,03,09,06,47,27.40
2016,03,09,06,48,32.20
2016,03,09,06,49,25.70
2016,03,09,06,50,27.40
2016,03,09,06,51,20.90
2016,03,09,06,52,22.50
2016,03,09,06,53,20.90
2016,03,09,06,54,24.20
2016,03,09,06,55,33.80
2016,03,09,06,56,24.20
2016,03,09,06,57,24.20
2016,03,09,06,58,22.50
2016,03,09,06,59,22.50
2016,03,09,07,00,17.70
2016,03,09,07,01,17.70
2016,03,09,07,02,22.50
2016,03,09,07,03,20.90
2016,03,09,07,04,22.50
2016,03,09,07,05,30.60
2016,03,09,07,06,30.60
2016,03,09,07,07,22.50
2016,03,09,07,08,25.70
2016,03,09,07,09,27.40
2016,03,09,07,10,27.40
2016,03,09,07,11,22.50
2016,03,09,07,12,32.20
2016,03,09,07,13,32.20
2016,03,09,07,14,29.00
2016,03,09,07,15,22.50
2016,03,09,07,16,27.40
2016,03,09,07,17,25.70
2016,03,09,07,18,30.60
2016,03,09,07,19,17.70
2016,03,09,07,20,19.30
2016,03,09,07,21,17.70
2016,03,09,07,22,30.60
2016,03,09,07,23,17.70
2016,03,09,07,24,24.20
2016,03,09,07,25,19.30
2016,03,09,07,26,22.50
2016,03,09,07,27,22.50
2016,03,09,07,28,16.10
2016,03,09,07,29,25.70
2016,03,09,07,30,25.70
2016,03,09,07,31,24.20
2016,03,09,07,32,22.50
2016,03,09,07,33,24.20
2016,03,09,07,34,30.60
2016,03,09,07,35,33.80
2016,03,09,07,36,27.40
2016,03,09,07,37,25.70
2016,03,09,07,38,29.00
2016,03,09,07,39,25.70
2016,03,09,07,40,25.70
2016,03,09,07,41,25.70
2016,03,09,07,42,30.60
2016,03,09,07,43,22.50
2016,03,09,07,44,29.00
2016,03,09,07,45,32.20
2016,03,09,07,46,30.60
2016,03,09,07,47,29.00
2016,03,09,07,48,40.20
2016,03,09,07,49,41.80
2016,03,09,07,50,29.00
2016,03,09,07,51,30.60
2016,03,09,07,52,37.00
2016,03,09,07,53,32.20
2016,03,09,07,54,33.80
2016,03,09,07,55,32.20
2016,03,09,07,56,22.50
2016,03,09,07,57,35.40
2016,03,09,07,58,29.00
2016,03,09,07,59,24.20
2016,03,09,08,00,27.40
2016,03,09,08,01,20.90
2016,03,09,08,02,27.40
2016,03,09,08,03,25.70
2016,03,09,08,04,17.70
2016,03,09,08,05,27.40
2016,03,09,08,06,22.50
2016,03,09,08,07,29.00
2016,03,09,08,08,24.20
2016,03,09,08,09,19.30
2016,03,09,08,10,30.60
2016,03,09,08,11,30.60
2016,03,09,08,12,16.10
2016,03,09,08,13,14.50
2016,03,09,08,14,24.20
2016,03,09,08,15,24.20
2016,03,09,08,16,20.90
2016,03,09,08,17,20.90
2016,03,09,08,18,20.90
2016,03,09,08,19,25.70
2016,03,09,08,20,24.20
2016,03,09,08,21,22.50
2016,03,09,08,22,29.00
2016,03,09,08,23,27.40
2016,03,09,08,24,24.20
2016,03,09,08,25,30.60
2016,03,09,08,26,25.70
2016,03,09,08,27,29.00
2016,03,09,08,28,25.70
2016,03,09,08,29,22.50
2016,03,09,08,30,17.70
2016,03,09,08,31,25.70
2016,03,09,08,32,22.50
2016,03,09,08,33,20.90
2016,03,09,08,34,32.20
2016,03,09,08,35,19.30
2016,03,09,08,36,22.50
2016,03,09,08,37,25.70
2016,03,09,08,38,24.20
2016,03,09,08,39,25.70
2016,03,09,08,40,30.60
2016,03,09,08,41,19.30
2016,03,09,08,42,38.60
2016,03,09,08,43,27.40
2016,03,09,08,44,37.00
2016,03,09,08,45,27.40
2016,03,09,08,46,37.00
2016,03,09,08,47,29.00
2016,03,09,08,48,33.80
2016,03,09,08,49,45.10
2016,03,09,08,50,38.60
2016,03,09,08,51,22.50
2016,03,09,08,52,30.60
2016,03,09,08,53,29.00
2016,03,09,08,54,33.80
2016,03,09,08,55,27.40
2016,03,09,08,56,33.80
2016,03,09,08,57,33.80
2016,03,09,08,58,30.60
2016,03,09,08,59,22.50
2016,03,09,09,00,19.30
2016,03,09,09,01,24.20
2016,03,09,09,02,24.20
2016,03,09,09,03,29.00
2016,03,09,09,04,24.20
2016,03,09,09,05,35.40
2016,03,09,09,06,30.60
2016,03,09,09,07,32.20
2016,03,09,09,08,32.20
2016,03,09,09,09,32.20
2016,03,09,09,10,32.20
2016,03,09,09,11,27.40
2016,03,09,09,12,33.80
2016,03,09,09,13,37.00
2016,03,09,09,14,37.00
2016,03,09,09,15,38.60
2016,03,09,09,16,30.60
2016,03,09,09,17,33.80
2016,03,09,09,18,37.00
2016,03,09,09,19,29.00
2016,03,09,09,20,37.00
2016,03,09,09,21,33.80
2016,03,09,09,22,30.60
2016,03,09,09,23,27.40
2016,03,09,09,24,17.70
2016,03,09,09,25,33.80
2016,03,09,09,26,30.60
2016,03,09,09,27,30.60
2016,03,09,09,28,41.80
2016,03,09,09,29,35.40
2016,03,09,09,30,32.20
2016,03,09,09,31,30.60
2016,03,09,09,32,41.80
2016,03,09,09,33,37.00
2016,03,09,09,34,43.50
2016,03,09,09,35,35.40
2016,03,09,09,36,33.80
2016,03,09,09,37,38.60
2016,03,09,09,38,30.60
2016,03,09,09,39,29.00
2016,03,09,09,40,30.60
2016,03,09,09,41,37.00
2016,03,09,09,42,29.00
2016,03,09,09,43,32.20
2016,03,09,09,44,38.60
2016,03,09,09,45,35.40
2016,03,09,09,46,29.00
2016,03,09,09,47,33.80
2016,03,09,09,48,41.80
2016,03,09,09,49,38.60
2016,03,09,09,50,33.80
2016,03,09,09,51,37.00
2016,03,09,09,52,32.20
2016,03,09,09,53,33.80
2016,03,09,09,54,30.60
2016,03,09,09,55,40.20
2016,03,09,09,56,35.40
2016,03,09,09,57,25.70
2016,03,09,09,58,32.20
2016,03,09,09,59,35.40
2016,03,09,10,00,30.60
2016,03,09,10,01,35.40
2016,03,09,10,02,29.00
2016,03,09,10,03,30.60
2016,03,09,10,04,29.00
2016,03,09,10,05,32.20
2016,03,09,10,06,35.40
2016,03,09,10,07,30.60
2016,03,09,10,08,30.60
2016,03,09,10,09,35.40
2016,03,09,10,10,30.60
2016,03,09,10,11,24.20
2016,03,09,10,12,33.80
2016,03,09,10,13,27.40
2016,03,09,10,14,33.80
2016,03,09,10,15,37.00
2016,03,09,10,16,29.00
2016,03,09,10,17,33.80
2016,03,09,10,18,38.60
2016,03,09,10,19,30.60
2016,03,09,10,20,38.60
2016,03,09,10,21,40.20
2016,03,09,10,22,27.40
2016,03,09,10,23,30.60
2016,03,09,10,24,32.20
2016,03,09,10,25,27.40
2016,03,09,10,26,37.00
2016,03,09,10,27,33.80
2016,03,09,10,28,25.70
2016,03,09,10,29,32.20
2016,03,09,10,30,37.00
2016,03,09,10,31,29.00
2016,03,09,10,32,29.00
2016,03,09,10,33,35.40
2016,03,09,10,34,30.60
2016,03,09,10,35,27.40
2016,03,09,10,36,33.80
2016,03,09,10,37,33.80
2016,03,09,10,38,27.40
2016,03,09,10,39,29.00
2016,03,09,10,40,35.40
2016,03,09,10,41,33.80
2016,03,09,10,42,37.00
2016,03,09,10,43,33.80
2016,03,09,10,44,33.80
2016,03,09,10,45,38.60
2016,03,09,10,46,29.00
2016,03,09,10,47,40.20
2016,03,09,10,48,38.60
2016,03,09,10,49,35.40
2016,03,09,10,50,45.10
2016,03,09,10,51,40.20
2016,03,09,10,52,46.70
2016,03,09,10,53,46.70
2016,03,09,10,54,41.80
2016,03,09,10,55,38.60
2016,03,09,10,56,32.20
2016,03,09,10,57,32.20
2016,03,09,10,58,37.00
2016,03,09,10,59,38.60
2016,03,09,11,00,49.90
2016,03,09,11,01,38.60
2016,03,09,11,02,35.40
2016,03,09,11,03,33.80
2016,03,09,11,04,35.40
2016,03,09,11,05,48.30
2016,03,09,11,06,43.50
2016,03,09,11,07,40.20
2016,03,09,11,08,38.60
2016,03,09,11,09,29.00
2016,03,09,11,10,32.20
2016,03,09,11,11,37.00
2016,03,09,11,12,32.20
2016,03,09,11,13,37.00
2016,03,09,11,14,30.60
2016,03,09,11,15,35.40
2016,03,09,11,16,24.20
2016,03,09,11,17,29.00
2016,03,09,11,18,24.20
2016,03,09,11,19,22.50
2016,03,09,11,20,25.70
2016,03,09,11,21,27.40
2016,03,09,11,22,32.20
2016,03,09,11,23,25.70
2016,03,09,11,24,37.00
2016,03,09,11,25,27.40
2016,03,09,11,26,22.50
2016,03,09,11,27,27.40
2016,03,09,11,28,24.20
2016,03,09,11,29,30.60
2016,03,09,11,30,20.90
2016,03,09,11,31,30.60
2016,03,09,11,32,29.00
2016,03,09,11,33,29.00
2016,03,09,11,34,35.40
2016,03,09,11,35,24.20
2016,03,09,11,36,29.00
2016,03,09,11,37,37.00
2016,03,09,11,38,29.00
2016,03,09,11,39,30.60
2016,03,09,11,40,41.80
2016,03,09,11,41,27.40
2016,03,09,11,42,25.70
2016,03,09,11,43,32.20
2016,03,09,11,44,27.40
2016,03,09,11,45,24.20
2016,03,09,11,46,22.50
2016,03,09,11,47,27.40
2016,03,09,11,48,22.50
2016,03,09,11,49,29.00
2016,03,09,11,50,29.00
2016,03,09,11,51,33.80
2016,03,09,11,52,27.40
2016,03,09,11,53,27.40
2016,03,09,11,54,27.40
2016,03,09,11,55,17.70
2016,03,09,11,56,24.20
2016,03,09,11,57,29.00
2016,03,09,11,58,27.40
2016,03,09,11,59,29.00
2016,03,09,12,00,30.60
2016,03,09,12,01,25.70
2016,03,09,12,02,20.90
2016,03,09,12,03,27.40
2016,03,09,12,04,24.20
2016,03,09,12,05,22.50
2016,03,09,12,06,35.40
2016,03,09,12,07,27.40
2016,03,09,12,08,27.40
2016,03,09,12,09,24.20
2016,03,09,12,10,17.70
2016,03,09,12,11,19.30
2016,03,09,12,12,20.90
2016,03,09,12,13,17.70
2016,03,09,12,14,20.90
2016,03,09,12,15,25.70
2016,03,09,12,16,16.10
2016,03,09,12,17,22.50
2016,03,09,12,18,20.90
2016,03,09,12,19,25.70
2016,03,09,12,20,20.90
2016,03,09,12,21,17.70
2016,03,09,12,22,24.20
2016,03,09,12,23,17.70
2016,03,09,12,24,24.20
2016,03,09,12,25,22.50
2016,03,09,12,26,22.50
2016,03,09,12,27,24.20
2016,03,09,12,28,22.50
2016,03,09,12,29,20.90
2016,03,09,12,30,27.40
2016,03,09,12,31,16.10
2016,03,09,12,32,19.30
2016,03,09,12,33,24.20
2016,03,09,12,34,22.50
2016,03,09,12,35,20.90
2016,03,09,12,36,17.70
2016,03,09,12,37,20.90
2016,03,09,12,38,25.70
2016,03,09,12,39,24.20
2016,03,09,12,40,20.90
2016,03,09,12,41,16.10
2016,03,09,12,42,12.90
2016,03,09,12,43,19.30
2016,03,09,12,44,16.10
2016,03,09,12,45,20.90
2016,03,09,12,46,19.30
2016,03,09,12,47,20.90
2016,03,09,12,48,17.70
2016,03,09,12,49,19.30
2016,03,09,12,50,19.30
2016,03,09,12,51,17.70
2016,03,09,12,52,17.70
2016,03,09,12,53,14.50
2016,03,09,12,54,16.10
2016,03,09,12,55,17.70
2016,03,09,12,56,16.10
2016,03,09,12,57,14.50
2016,03,09,12,58,20.90
2016,03,09,12,59,17.70
2016,03,09,13,00,17.70
2016,03,09,13,01,24.20
2016,03,09,13,02,19.30
2016,03,09,13,03,14.50
2016,03,09,13,04,12.90
2016,03,09,13,05,16.10
2016,03,09,13,06,16.10
2016,03,09,13,07,16.10
2016,03,09,13,08,19.30
2016,03,09,13,09,16.10
2016,03,09,13,10,11.30
2016,03,09,13,11,14.50
2016,03,09,13,12,12.90
2016,03,09,13,13,11.30
2016,03,09,13,14,9.60
2016,03,09,13,15,11.30
2016,03,09,13,16,9.60
2016,03,09,13,17,16.10
2016,03,09,13,18,12.90
2016,03,09,13,19,17.70
2016,03,09,13,20,17.70
2016,03,09,13,21,12.90
2016,03,09,13,22,17.70
2016,03,09,13,23,19.30
2016,03,09,13,24,12.90
2016,03,09,13,25,12.90
2016,03,09,13,26,9.60
2016,03,09,13,27,12.90
2016,03,09,13,28,11.30
2016,03,09,13,29,12.90
2016,03,09,13,30,6.40
2016,03,09,13,31,14.50
2016,03,09,13,32,16.10
2016,03,09,13,33,16.10
2016,03,09,13,34,12.90
2016,03,09,13,35,16.10
2016,03,09,13,36,12.90
2016,03,09,13,37,12.90
2016,03,09,13,38,9.60
2016,03,09,13,39,16.10
2016,03,09,13,40,19.30
2016,03,09,13,41,12.90
2016,03,09,13,42,12.90
2016,03,09,13,43,16.10
2016,03,09,13,44,11.30
2016,03,09,13,45,16.10
2016,03,09,13,46,12.90
2016,03,09,13,47,9.60
2016,03,09,13,48,14.50
2016,03,09,13,49,12.90
2016,03,09,13,50,12.90
2016,03,09,13,51,6.40
2016,03,09,13,52,9.60
2016,03,09,13,53,11.30
2016,03,09,13,54,12.90
2016,03,09,13,55,11.30
2016,03,09,13,56,14.50
2016,03,09,13,57,14.50
2016,03,09,13,58,11.30
2016,03,09,13,59,12.90
2016,03,09,14,00,11.30
2016,03,09,14,01,9.60
2016,03,09,14,02,8.10
2016,03,09,14,03,8.10
2016,03,09,14,04,11.30
2016,03,09,14,05,6.40
2016,03,09,14,06,16.10
2016,03,09,14,07,12.90
2016,03,09,14,08,11.30
2016,03,09,14,09,11.30
2016,03,09,14,10,11.30
2016,03,09,14,11,6.40
2016,03,09,14,12,6.40
2016,03,09,14,13,9.60
2016,03,09,14,14,12.90
2016,03,09,14,15,11.30
2016,03,09,14,16,17.70
2016,03,09,14,17,12.90
2016,03,09,14,18,17.70
2016,03,09,14,19,9.60
2016,03,09,14,20,11.30
2016,03,09,14,21,11.30
2016,03,09,14,22,14.50
2016,03,09,14,23,9.60
2016,03,09,14,24,11.30
2016,03,09,14,25,9.60
2016,03,09,14,26,12.90
2016,03,09,14,27,11.30
2016,03,09,14,28,12.90
2016,03,09,14,29,14.50
2016,03,09,14,30,11.30
2016,03,09,14,31,9.60
2016,03,09,14,32,8.10
2016,03,09,14,33,6.40
2016,03,09,14,34,9.60
2016,03,09,14,35,11.30
2016,03,09,14,36,11.30
2016,03,09,14,37,14.50
2016,03,09,14,38,16.10
2016,03,09,14,39,12.90
2016,03,09,14,40,14.50
2016,03,09,14,41,16.10
2016,03,09,14,42,19.30
2016,03,09,14,43,20.90
2016,03,09,14,44,14.50
2016,03,09,14,45,11.30
2016,03,09,14,46,11.30
2016,03,09,14,47,9.60
2016,03,09,14,48,12.90
2016,03,09,14,49,12.90
2016,03,09,14,50,11.30
2016,03,09,14,51,16.10
2016,03,09,14,52,12.90
2016,03,09,14,53,8.10
2016,03,09,14,54,14.50
2016,03,09,14,55,12.90
2016,03,09,14,56,12.90
2016,03,09,14,57,9.60
2016,03,09,14,58,12.90
2016,03,09,14,59,11.30
2016,03,09,15,00,14.50
2016,03,09,15,01,11.30
2016,03,09,15,02,6.40
2016,03,09,15,03,6.40
2016,03,09,15,04,14.50
2016,03,09,15,05,14.50
2016,03,09,15,06,16.10
2016,03,09,15,07,12.90
2016,03,09,15,08,9.60
2016,03,09,15,09,6.40
2016,03,09,15,10,11.30
2016,03,09,15,11,14.50
2016,03,09,15,12,12.90
2016,03,09,15,13,16.10
2016,03,09,15,14,17.70
2016,03,09,15,15,14.50
2016,03,09,15,16,14.50
2016,03,09,15,17,12.90
2016,03,09,15,18,14.50
2016,03,09,15,19,12.90
2016,03,09,15,20,11.30
2016,03,09,15,21,9.60
2016,03,09,15,22,6.40
2016,03,09,15,23,16.10
2016,03,09,15,24,16.10
2016,03,09,15,25,12.90
2016,03,09,15,26,16.10
2016,03,09,15,27,17.70
2016,03,09,15,28,14.50
2016,03,09,15,29,16.10
2016,03,09,15,30,17.70
2016,03,09,15,31,11.30
2016,03,09,15,32,11.30
2016,03,09,15,33,14.50
2016,03,09,15,34,11.30
2016,03,09,15,35,16.10
2016,03,09,15,36,12.90
2016,03,09,15,37,12.90
2016,03,09,15,38,17.70
2016,03,09,15,39,19.30
2016,03,09,15,40,14.50
2016,03,09,15,41,14.50
2016,03,09,15,42,12.90
2016,03,09,15,43,11.30
2016,03,09,15,44,17.70
2016,03,09,15,45,19.30
2016,03,09,15,46,14.50
2016,03,09,15,47,14.50
2016,03,09,15,48,14.50
2016,03,09,15,49,14.50
2016,03,09,15,50,22.50
2016,03,09,15,51,27.40
2016,03,09,15,52,17.70
2016,03,09,15,53,17.70
2016,03,09,15,54,29.00
2016,03,09,15,55,35.40
2016,03,09,15,56,22.50
2016,03,09,15,57,17.70
2016,03,09,15,58,24.20
2016,03,09,15,59,38.60
2016,03,09,16,00,33.80
2016,03,09,16,01,33.80
2016,03,09,16,02,27.40
2016,03,09,16,03,33.80
2016,03,09,16,04,29.00
2016,03,09,16,05,25.70
2016,03,09,16,06,25.70
2016,03,09,16,07,35.40
2016,03,09,16,08,30.60
2016,03,09,16,09,38.60
2016,03,09,16,10,33.80
2016,03,09,16,11,37.00
2016,03,09,16,12,48.30
2016,03,09,16,13,29.00
2016,03,09,16,14,40.20
2016,03,09,16,15,33.80
2016,03,09,16,16,24.20
2016,03,09,16,17,30.60
2016,03,09,16,18,38.60
2016,03,09,16,19,25.70
2016,03,09,16,20,20.90
2016,03,09,16,21,30.60
2016,03,09,16,22,38.60
2016,03,09,16,23,33.80
2016,03,09,16,24,29.00
2016,03,09,16,25,25.70
2016,03,09,16,26,27.40
2016,03,09,16,27,22.50
2016,03,09,16,28,17.70
2016,03,09,16,29,27.40
2016,03,09,16,30,27.40
2016,03,09,16,31,38.60
2016,03,09,16,32,27.40
2016,03,09,16,33,24.20
2016,03,09,16,34,22.50
2016,03,09,16,35,37.00
2016,03,09,16,36,40.20
2016,03,09,16,37,41.80
2016,03,09,16,38,41.80
2016,03,09,16,39,29.00
2016,03,09,16,40,24.20
2016,03,09,16,41,35.40
2016,03,09,16,42,41.80
2016,03,09,16,43,30.60
2016,03,09,16,44,27.40
2016,03,09,16,45,32.20
2016,03,09,16,46,40.20
2016,03,09,16,47,30.60
2016,03,09,16,48,32.20
2016,03,09,16,49,25.70
2016,03,09,16,50,27.40
2016,03,09,16,51,27.40
2016,03,09,16,52,29.00
2016,03,09,16,53,29.00
2016,03,09,16,54,35.40
2016,03,09,16,55,29.00
2016,03,09,16,56,30.60
2016,03,09,16,57,29.00
2016,03,09,16,58,37.00
2016,03,09,16,59,24.20
2016,03,09,17,00,22.50
2016,03,09,17,01,24.20
2016,03,09,17,02,30.60
2016,03,09,17,03,29.00
2016,03,09,17,04,33.80
2016,03,09,17,05,27.40
2016,03,09,17,06,46.70
2016,03,09,17,07,30.60
2016,03,09,17,08,38.60
2016,03,09,17,09,43.50
2016,03,09,17,10,48.30
2016,03,09,17,11,48.30
2016,03,09,17,12,29.00
2016,03,09,17,13,43.50
2016,03,09,17,14,35.40
2016,03,09,17,15,41.80
2016,03,09,17,16,35.40
2016,03,09,17,17,27.40
2016,03,09,17,18,25.70
2016,03,09,17,19,32.20
2016,03,09,17,20,20.90
2016,03,09,17,21,35.40
2016,03,09,17,22,38.60